Regional Weather Roundup
Issued by NWS State College, PA

Home | Current Version | Previous Version | Graphics & Text | Print | Product List | Glossary On
Versions: 1 2 3 4 5 6 7 8 9 10 11 12 13 14 15 16 17 18 19 20 21 22 23 24 25 26 27 28 29 30 31 32 33 34 35 36 37 38 39 40 41 42 43 44 45 46 47 48 49 50
000
ASUS41 KCTP 020103
RWRCTP

REGIONAL WEATHER ROUNDUP
NATIONAL WEATHER SERVICE STATE COLLEGE PA
900 PM EDT SAT AUG 01 2015

Note: "fair" indicates few or no clouds below 12,000 feet with no
significant weather and/or obstructions to visibility.

* = STATION THAT DOES NOT REPORT PRECIPITATION /E.G. RAIN...SNOW...ETC/
    THUNDER OR FOG.

PAZ002>004-007>009-013>016-020>023-029>032-020200-
WESTERN PENNSYLVANIA

CITY           SKY/WX    TMP DP  RH WIND       PRES   REMARKS
ERIE           PTCLDY    73  59  61 CALM      29.89F
MEADVILLE      CLEAR     71  50  47 CALM      29.93S
FRANKLIN*      CLEAR     66  52  59 W5        29.95S
NEW CASTLE     FAIR      68  56  65 CALM      29.94R
BEAVER COUNTY  NOT AVBL
BUTLER*        MOCLDY    68  57  68 CALM      29.95R
PITTSBURGH INT PTCLDY    75  55  49 SW6       29.93R
PITTSBURGH     CLEAR     74  49  41 W7        29.93R
INDIANA*       MOCLDY    70  63  78 CALM      29.97R
LATROBE        MOCLDY    73  55  53 CALM      29.94S
WASHINGTON CO* NOT AVBL
$$

PAZ004>006-010>012-017>019-024>028-033>037-041-042-045-046-049>053-020200-
CENTRAL PENNSYLVANIA

CITY           SKY/WX    TMP DP  RH WIND       PRES   REMARKS
BRADFORD       CLEAR     63  52  67 CALM      29.95R
DUBOIS         PTCLDY    65  59  81 SW5       29.94R
CLEARFIELD     PTCLDY    66  60  81 NW3       29.94R
JOHNSTOWN      CLOUDY    69  54  58 W3        29.98R
ALTOONA        MOCLDY    67  62  84 CALM      29.95R
STATE COLLEGE  PTCLDY    66  63  88 CALM      29.92S
WILLIAMSPORT   CLEAR     70  57  63 CALM      29.86R
SELINSGROVE    LGT RAIN  66  63  90 CALM      29.89R
FT INDIANTOWN  NOT AVBL
CAPITAL CITY   PTCLDY    76  58  53 SW5       29.88R
HARRISBURG     PTCLDY    75  61  61 NW3       29.87R
YORK           PTCLDY    68  64  87 W3        29.88R
$$

PAZ038>040-043-044-047-048-054-055-060>062-067>071-020200-
EASTERN PENNSYLVANIA

CITY           SKY/WX    TMP DP  RH WIND       PRES   REMARKS
SCRANTON       CLEAR     65  61  87 SE3       29.88R
MOUNT POCONO   PTCLDY    63  55  75 NW5       29.92R
ALLENTOWN      MOCLDY    77  59  53 W3        29.86R
QUAKERTOWN*    CLEAR     75  59  57 CALM      29.87R
READING        PTCLDY    77  58  51 W5        29.85R
LANCASTER      PTCLDY    75  58  55 NW8       29.87R
COATESVILLE    CLEAR     73  57  56 CALM      29.89R
POTTSTOWN      CLEAR     76  60  57 W3        29.87R
BLUE BELL      CLEAR     70  64  83 CALM      29.84R
DOYLESTOWN     CLEAR     75  57  53 CALM      29.85R
WILLOW GROVE   NOT AVBL
NORTH PHILA    CLEAR     82  53  36 NW3       29.86R
PHILADELPHIA   PTCLDY    83  58  42 W7        29.85R
$$


USA.gov is the U.S. government's official web portal to all federal, state and local government web resources and services.